Location: Chippewa Lake
(41.0698°N, 81.9010°W)
Time: 21:30:33
(UTC+00:00)

Cosmos 2278 Rocket - Pass Details

Date: 09 May 2021
Orbit: 841 x 845 km, 71.0° (Epoch: 16 June)

Event Time Altitude Azimuth Distance (km) Brightness Sun altitude
Exits shadow 02:10:40 24° 112° (ESE) 1,671 3.2 -16.4°
Maximum altitude 02:11:18 25° 102° (ESE) 1,651 3.2 -16.5°
Drops below altitude 10° 02:15:46 10° 49° (NE) 2,464 4.6 -17.1°
Sets 02:18:37 0° 37° (NE) 3,404 5.4 -17.5°
